Time,TemperatureF,DewpointF,PressureIn,WindDirection,WindDirectionDegrees,WindSpeedMPH,WindSpeedGustMPH,Humidity,HourlyPrecipIn,Conditions,Clouds,dailyrainin,SoftwareType,DateUTC
2013-03-03 00:02:00,24.0,19.0,29.85,ESE,111,0.0,3.0,82,0.00,,,0.00,,2013-03-03 05:02:00,
2013-03-03 00:12:00,24.0,19.0,29.85,ESE,111,0.0,3.0,82,0.00,,,0.00,,2013-03-03 05:12:00,
2013-03-03 00:22:00,24.0,19.0,29.85,ESE,112,0.0,3.0,82,0.00,,,0.00,,2013-03-03 05:22:00,
2013-03-03 00:32:00,24.0,19.0,29.85,ESE,112,2.0,3.0,81,0.00,,,0.00,,2013-03-03 05:32:00,
2013-03-03 00:42:00,24.0,19.0,29.85,ESE,112,2.0,3.0,81,0.00,,,0.00,,2013-03-03 05:42:00,
2013-03-03 00:52:00,24.0,19.0,29.85,ESE,110,0.0,4.0,81,0.00,,,0.00,,2013-03-03 05:52:00,
2013-03-03 01:02:00,23.0,18.0,29.85,ESE,107,1.0,4.0,81,0.00,,,0.00,,2013-03-03 06:02:00,
2013-03-03 01:11:00,23.0,18.0,29.85,ESE,107,1.0,4.0,81,0.00,,,0.00,,2013-03-03 06:11:00,
2013-03-03 01:21:00,23.0,18.0,29.85,ESE,117,2.0,4.0,81,0.00,,,0.00,,2013-03-03 06:21:00,
2013-03-03 01:32:00,23.0,18.0,29.85,ESE,117,1.0,2.0,81,0.00,,,0.00,,2013-03-03 06:32:00,
2013-03-03 01:42:00,23.0,18.0,29.85,ESE,117,1.0,2.0,81,0.00,,,0.00,,2013-03-03 06:42:00,
2013-03-03 01:52:00,23.0,18.0,29.85,ESE,113,2.0,4.0,82,0.00,,,0.00,,2013-03-03 06:52:00,
2013-03-03 02:01:00,23.0,18.0,29.85,ESE,106,1.0,5.0,82,0.00,,,0.00,,2013-03-03 07:01:00,
2013-03-03 02:11:00,23.0,18.0,29.85,ESE,106,1.0,5.0,82,0.00,,,0.00,,2013-03-03 07:11:00,
2013-03-03 02:21:00,23.0,19.0,29.85,East,98,1.0,3.0,83,0.00,,,0.00,,2013-03-03 07:21:00,
2013-03-03 02:32:00,23.0,18.0,29.85,East,98,0.0,3.0,82,0.00,,,0.00,,2013-03-03 07:32:00,
2013-03-03 02:42:00,23.0,18.0,29.85,East,98,0.0,3.0,82,0.00,,,0.00,,2013-03-03 07:42:00,
2013-03-03 02:52:00,22.0,17.0,29.84,ESE,114,3.0,5.0,81,0.00,,,0.00,,2013-03-03 07:52:00,
2013-03-03 03:01:00,22.0,17.0,29.84,ESE,107,1.0,3.0,82,0.00,,,0.00,,2013-03-03 08:01:00,
2013-03-03 03:11:00,22.0,17.0,29.84,ESE,107,1.0,3.0,82,0.00,,,0.00,,2013-03-03 08:11:00,
2013-03-03 03:21:00,22.0,17.0,29.84,ESE,106,1.0,3.0,81,0.00,,,0.00,,2013-03-03 08:21:00,
2013-03-03 03:31:00,22.0,17.0,29.84,ESE,107,0.0,3.0,82,0.00,,,0.00,,2013-03-03 08:31:00,
2013-03-03 03:42:00,22.0,17.0,29.84,ESE,107,0.0,3.0,82,0.00,,,0.00,,2013-03-03 08:42:00,
2013-03-03 03:54:00,22.0,18.0,29.84,ESE,105,0.0,3.0,83,0.00,,,0.00,,2013-03-03 08:54:00,
2013-03-03 04:01:00,22.0,18.0,29.84,ESE,105,1.0,2.0,83,0.00,,,0.00,,2013-03-03 09:01:00,
2013-03-03 04:12:00,22.0,18.0,29.84,ESE,105,1.0,2.0,83,0.00,,,0.00,,2013-03-03 09:12:00,
2013-03-03 04:21:00,22.0,18.0,29.84,ESE,113,2.0,6.0,83,0.00,,,0.00,,2013-03-03 09:21:00,
2013-03-03 04:32:00,22.0,18.0,29.84,ESE,120,2.0,4.0,83,0.00,,,0.00,,2013-03-03 09:32:00,
2013-03-03 04:42:00,22.0,18.0,29.84,ESE,120,2.0,4.0,83,0.00,,,0.00,,2013-03-03 09:42:00,
2013-03-03 04:52:00,21.0,17.0,29.84,ESE,111,2.0,3.0,83,0.00,,,0.00,,2013-03-03 09:52:00,
2013-03-03 05:01:00,21.0,17.0,29.84,ESE,111,2.0,4.0,83,0.00,,,0.00,,2013-03-03 10:01:00,
2013-03-03 05:11:00,21.0,17.0,29.84,ESE,111,2.0,4.0,83,0.00,,,0.00,,2013-03-03 10:11:00,
2013-03-03 05:21:00,21.0,17.0,29.84,ESE,108,0.0,3.0,83,0.00,,,0.00,,2013-03-03 10:21:00,
2013-03-03 05:32:00,21.0,17.0,29.84,ESE,108,1.0,2.0,83,0.00,,,0.00,,2013-03-03 10:32:00,
2013-03-03 05:42:00,21.0,17.0,29.84,ESE,108,1.0,2.0,83,0.00,,,0.00,,2013-03-03 10:42:00,
2013-03-03 05:52:00,21.0,17.0,29.84,ESE,108,1.0,3.0,84,0.00,,,0.00,,2013-03-03 10:52:00,
2013-03-03 06:01:00,21.0,17.0,29.85,ESE,108,0.0,2.0,84,0.00,,,0.00,,2013-03-03 11:01:00,
2013-03-03 06:11:00,21.0,17.0,29.85,ESE,108,0.0,2.0,84,0.00,,,0.00,,2013-03-03 11:11:00,
2013-03-03 06:22:00,21.0,17.0,29.85,ESE,107,0.0,2.0,85,0.00,,,0.00,,2013-03-03 11:22:00,
2013-03-03 06:32:00,21.0,17.0,29.85,ESE,107,0.0,1.0,85,0.00,,,0.00,,2013-03-03 11:32:00,
2013-03-03 06:42:00,21.0,17.0,29.85,ESE,107,0.0,1.0,85,0.00,,,0.00,,2013-03-03 11:42:00,
2013-03-03 06:53:00,21.0,17.0,29.85,East,94,1.0,3.0,85,0.00,,,0.00,,2013-03-03 11:53:00,
2013-03-03 07:02:00,21.0,17.0,29.85,SE,126,2.0,4.0,85,0.00,,,0.00,,2013-03-03 12:02:00,
2013-03-03 07:11:00,21.0,17.0,29.85,SE,126,2.0,4.0,85,0.00,,,0.00,,2013-03-03 12:11:00,
2013-03-03 07:21:00,21.0,17.0,29.85,ESE,113,2.0,3.0,86,0.00,,,0.00,,2013-03-03 12:21:00,
2013-03-03 07:32:00,21.0,17.0,29.85,ESE,111,1.0,3.0,86,0.00,,,0.00,,2013-03-03 12:32:00,
2013-03-03 07:43:00,21.0,17.0,29.85,ESE,111,1.0,3.0,86,0.00,,,0.00,,2013-03-03 12:43:00,
2013-03-03 07:53:00,21.0,17.0,29.86,ESE,115,1.0,5.0,86,0.00,,,0.00,,2013-03-03 12:53:00,
2013-03-03 08:01:00,21.0,17.0,29.86,ESE,111,2.0,4.0,86,0.00,,,0.00,,2013-03-03 13:01:00,
2013-03-03 08:11:00,21.0,17.0,29.86,ESE,111,2.0,4.0,86,0.00,,,0.00,,2013-03-03 13:11:00,
2013-03-03 08:22:00,21.0,17.0,29.86,East,98,2.0,5.0,86,0.00,,,0.00,,2013-03-03 13:22:00,
2013-03-03 08:32:00,21.0,17.0,29.86,ESE,111,2.0,5.0,86,0.00,,,0.00,,2013-03-03 13:32:00,
2013-03-03 08:42:00,21.0,17.0,29.86,ESE,111,2.0,5.0,86,0.00,,,0.00,,2013-03-03 13:42:00,
2013-03-03 08:52:00,21.0,17.0,29.87,ESE,118,3.0,5.0,86,0.00,,,0.00,,2013-03-03 13:52:00,
2013-03-03 09:02:00,21.0,17.0,29.87,SE,133,3.0,6.0,85,0.00,,,0.00,,2013-03-03 14:02:00,
2013-03-03 09:11:00,21.0,17.0,29.87,SE,133,3.0,6.0,85,0.00,,,0.00,,2013-03-03 14:11:00,
2013-03-03 09:21:00,21.0,17.0,29.86,ESE,117,3.0,4.0,85,0.00,,,0.00,,2013-03-03 14:21:00,
2013-03-03 09:32:00,21.0,17.0,29.87,ENE,74,3.0,5.0,84,0.00,,,0.00,,2013-03-03 14:32:00,
2013-03-03 09:42:00,21.0,17.0,29.87,ENE,74,3.0,5.0,84,0.00,,,0.00,,2013-03-03 14:42:00,
2013-03-03 09:52:00,22.0,18.0,29.86,ESE,119,3.0,6.0,84,0.00,,,0.00,,2013-03-03 14:52:00,
2013-03-03 10:02:00,21.0,17.0,29.86,SE,133,4.0,6.0,84,0.00,,,0.00,,2013-03-03 15:02:00,
2013-03-03 10:11:00,21.0,17.0,29.86,SE,133,4.0,6.0,84,0.00,,,0.00,,2013-03-03 15:11:00,
2013-03-03 10:22:00,21.0,17.0,29.85,SE,124,3.0,8.0,84,0.00,,,0.00,,2013-03-03 15:22:00,
2013-03-03 10:32:00,22.0,18.0,29.85,ESE,123,4.0,6.0,83,0.00,,,0.00,,2013-03-03 15:32:00,
2013-03-03 10:42:00,22.0,18.0,29.85,ESE,123,4.0,6.0,83,0.00,,,0.00,,2013-03-03 15:42:00,
2013-03-03 10:52:00,22.0,17.0,29.85,ESE,110,5.0,9.0,81,0.00,,,0.00,,2013-03-03 15:52:00,
2013-03-03 11:02:00,22.0,17.0,29.85,ESE,115,5.0,10.0,81,0.00,,,0.00,,2013-03-03 16:02:00,
2013-03-03 11:12:00,22.0,17.0,29.85,ESE,115,5.0,10.0,81,0.00,,,0.00,,2013-03-03 16:12:00,
2013-03-03 11:22:00,22.0,17.0,29.85,ESE,115,3.0,7.0,81,0.00,,,0.00,,2013-03-03 16:22:00,
2013-03-03 11:32:00,22.0,17.0,29.85,SE,134,4.0,10.0,80,0.00,,,0.00,,2013-03-03 16:32:00,
2013-03-03 11:42:00,22.0,17.0,29.85,SE,134,4.0,10.0,80,0.00,,,0.00,,2013-03-03 16:42:00,
2013-03-03 11:52:00,22.0,17.0,29.85,ESE,113,5.0,7.0,80,0.00,,,0.00,,2013-03-03 16:52:00,
2013-03-03 12:01:00,22.0,16.0,29.85,SE,125,3.0,7.0,79,0.00,,,0.00,,2013-03-03 17:01:00,
2013-03-03 12:11:00,22.0,16.0,29.85,ESE,115,6.0,10.0,78,0.00,,,0.00,,2013-03-03 17:11:00,
2013-03-03 12:22:00,22.0,16.0,29.85,ESE,115,6.0,10.0,78,0.00,,,0.00,,2013-03-03 17:22:00,
2013-03-03 12:32:00,23.0,17.0,29.85,East,100,3.0,9.0,78,0.00,,,0.00,,2013-03-03 17:32:00,
2013-03-03 12:42:00,23.0,17.0,29.85,East,100,3.0,9.0,78,0.00,,,0.00,,2013-03-03 17:42:00,
2013-03-03 12:52:00,23.0,17.0,29.85,East,91,3.0,9.0,78,0.00,,,0.00,,2013-03-03 17:52:00,
2013-03-03 13:02:00,22.0,16.0,29.84,East,101,4.0,9.0,79,0.00,,,0.00,,2013-03-03 18:02:00,
2013-03-03 13:11:00,22.0,16.0,29.84,East,101,4.0,9.0,79,0.00,,,0.00,,2013-03-03 18:11:00,
2013-03-03 13:21:00,22.0,17.0,29.83,ESE,103,3.0,10.0,80,0.00,,,0.00,,2013-03-03 18:21:00,
2013-03-03 13:32:00,22.0,16.0,29.83,ESE,123,4.0,11.0,78,0.00,,,0.00,,2013-03-03 18:32:00,
2013-03-03 13:42:00,22.0,16.0,29.83,ESE,123,4.0,11.0,78,0.00,,,0.00,,2013-03-03 18:42:00,
2013-03-03 13:52:00,22.0,16.0,29.83,ESE,117,4.0,9.0,78,0.00,,,0.00,,2013-03-03 18:52:00,
2013-03-03 14:02:00,22.0,16.0,29.83,ESE,115,5.0,7.0,78,0.00,,,0.00,,2013-03-03 19:02:00,
2013-03-03 14:11:00,22.0,16.0,29.83,ESE,115,5.0,7.0,78,0.00,,,0.00,,2013-03-03 19:11:00,
2013-03-03 14:22:00,22.0,16.0,29.83,East,88,3.0,10.0,78,0.00,,,0.00,,2013-03-03 19:22:00,
2013-03-03 14:32:00,22.0,16.0,29.83,ESE,107,5.0,10.0,76,0.00,,,0.00,,2013-03-03 19:32:00,
2013-03-03 14:42:00,22.0,16.0,29.83,ESE,107,5.0,10.0,76,0.00,,,0.00,,2013-03-03 19:42:00,
2013-03-03 14:52:00,23.0,16.0,29.83,ESE,111,6.0,10.0,73,0.00,,,0.00,,2013-03-03 19:52:00,
2013-03-03 15:01:00,23.0,16.0,29.83,ESE,107,4.0,9.0,74,0.00,,,0.00,,2013-03-03 20:01:00,
2013-03-03 15:11:00,23.0,16.0,29.83,ESE,107,4.0,9.0,74,0.00,,,0.00,,2013-03-03 20:11:00,
2013-03-03 15:22:00,23.0,16.0,29.83,East,82,4.0,10.0,74,0.00,,,0.00,,2013-03-03 20:22:00,
2013-03-03 15:32:00,22.0,15.0,29.84,East,97,4.0,10.0,75,0.00,,,0.00,,2013-03-03 20:32:00,
2013-03-03 15:42:00,22.0,15.0,29.84,East,97,4.0,10.0,75,0.00,,,0.00,,2013-03-03 20:42:00,
2013-03-03 15:53:00,22.0,16.0,29.84,ENE,72,5.0,9.0,77,0.00,,,0.00,,2013-03-03 20:53:00,
2013-03-03 16:02:00,23.0,17.0,29.84,East,79,4.0,11.0,77,0.00,,,0.00,,2013-03-03 21:02:00,
2013-03-03 16:12:00,23.0,17.0,29.84,East,79,4.0,11.0,77,0.00,,,0.00,,2013-03-03 21:12:00,
2013-03-03 16:22:00,22.0,16.0,29.85,East,86,3.0,7.0,78,0.00,,,0.00,,2013-03-03 21:22:00,
2013-03-03 16:32:00,22.0,16.0,29.85,East,84,2.0,9.0,79,0.00,,,0.00,,2013-03-03 21:32:00,
2013-03-03 16:42:00,22.0,16.0,29.85,East,84,2.0,9.0,79,0.00,,,0.00,,2013-03-03 21:42:00,
2013-03-03 16:52:00,22.0,17.0,29.85,East,98,4.0,6.0,81,0.00,,,0.00,,2013-03-03 21:52:00,
2013-03-03 17:02:00,22.0,17.0,29.85,ESE,118,4.0,7.0,82,0.00,,,0.00,,2013-03-03 22:02:00,
2013-03-03 17:11:00,22.0,17.0,29.85,ESE,118,4.0,7.0,82,0.00,,,0.00,,2013-03-03 22:11:00,
2013-03-03 17:22:00,22.0,17.0,29.85,East,94,3.0,9.0,82,0.00,,,0.00,,2013-03-03 22:22:00,
2013-03-03 17:32:00,22.0,17.0,29.85,ESE,114,2.0,5.0,82,0.00,,,0.00,,2013-03-03 22:32:00,
2013-03-03 17:42:00,22.0,17.0,29.85,ESE,114,2.0,5.0,82,0.00,,,0.00,,2013-03-03 22:42:00,
2013-03-03 17:52:00,22.0,17.0,29.85,East,94,2.0,11.0,81,0.00,,,0.00,,2013-03-03 22:52:00,
2013-03-03 18:01:00,22.0,17.0,29.85,East,88,3.0,6.0,81,0.00,,,0.00,,2013-03-03 23:01:00,
2013-03-03 18:11:00,22.0,17.0,29.85,East,88,3.0,6.0,81,0.00,,,0.00,,2013-03-03 23:11:00,
2013-03-03 18:21:00,22.0,17.0,29.86,NE,54,3.0,9.0,82,0.00,,,0.00,,2013-03-03 23:21:00,
2013-03-03 18:32:00,22.0,17.0,29.86,East,97,3.0,6.0,82,0.00,,,0.00,,2013-03-03 23:32:00,
2013-03-03 18:42:00,22.0,17.0,29.86,East,97,3.0,6.0,82,0.00,,,0.00,,2013-03-03 23:42:00,
2013-03-03 18:52:00,22.0,18.0,29.86,East,85,2.0,6.0,83,0.00,,,0.00,,2013-03-03 23:52:00,
2013-03-03 19:02:00,22.0,18.0,29.86,NE,56,2.0,6.0,84,0.00,,,0.00,,2013-03-04 00:02:00,
2013-03-03 19:11:00,22.0,18.0,29.86,NE,56,2.0,6.0,84,0.00,,,0.00,,2013-03-04 00:11:00,
2013-03-03 19:22:00,22.0,18.0,29.87,East,89,2.0,4.0,83,0.00,,,0.00,,2013-03-04 00:22:00,
2013-03-03 19:32:00,22.0,18.0,29.87,ENE,72,3.0,7.0,84,0.00,,,0.00,,2013-03-04 00:32:00,
2013-03-03 19:42:00,22.0,18.0,29.87,ENE,72,3.0,7.0,84,0.00,,,0.00,,2013-03-04 00:42:00,
2013-03-03 19:52:00,22.0,18.0,29.87,East,88,5.0,10.0,84,0.00,,,0.00,,2013-03-04 00:52:00,
2013-03-03 20:01:00,23.0,19.0,29.87,East,85,3.0,9.0,84,0.00,,,0.00,,2013-03-04 01:01:00,
2013-03-03 20:12:00,23.0,19.0,29.87,East,85,3.0,9.0,84,0.00,,,0.00,,2013-03-04 01:12:00,
2013-03-03 20:22:00,23.0,19.0,29.87,East,83,3.0,6.0,84,0.00,,,0.00,,2013-03-04 01:22:00,
2013-03-03 20:32:00,23.0,19.0,29.87,ENE,71,1.0,4.0,85,0.00,,,0.00,,2013-03-04 01:32:00,
2013-03-03 20:42:00,23.0,19.0,29.87,ENE,71,1.0,4.0,85,0.00,,,0.00,,2013-03-04 01:42:00,
2013-03-03 20:52:00,22.0,18.0,29.88,East,88,3.0,6.0,86,0.00,,,0.00,,2013-03-04 01:52:00,
2013-03-03 21:01:00,22.0,18.0,29.88,ENE,71,2.0,5.0,86,0.00,,,0.00,,2013-03-04 02:01:00,
2013-03-03 21:11:00,22.0,18.0,29.88,ENE,71,2.0,5.0,86,0.00,,,0.00,,2013-03-04 02:11:00,
2013-03-03 21:22:00,22.0,19.0,29.88,ESE,111,1.0,7.0,87,0.00,,,0.00,,2013-03-04 02:22:00,
2013-03-03 21:32:00,22.0,19.0,29.88,ENE,74,3.0,5.0,87,0.00,,,0.00,,2013-03-04 02:32:00,
2013-03-03 21:42:00,22.0,19.0,29.88,ENE,74,3.0,5.0,87,0.00,,,0.00,,2013-03-04 02:42:00,
2013-03-03 21:53:00,22.0,19.0,29.87,ESE,105,2.0,8.0,87,0.00,,,0.00,,2013-03-04 02:53:00,
2013-03-03 22:02:00,22.0,19.0,29.87,East,86,3.0,10.0,87,0.00,,,0.00,,2013-03-04 03:02:00,
2013-03-03 22:11:00,22.0,19.0,29.87,East,86,3.0,10.0,87,0.00,,,0.00,,2013-03-04 03:11:00,
2013-03-03 22:22:00,23.0,20.0,29.87,ESE,109,3.0,9.0,87,0.00,,,0.00,,2013-03-04 03:22:00,
2013-03-03 22:32:00,23.0,19.0,29.87,East,101,7.0,10.0,86,0.00,,,0.00,,2013-03-04 03:32:00,
2013-03-03 22:42:00,23.0,19.0,29.87,East,101,4.0,10.0,85,0.00,,,0.00,,2013-03-04 03:42:00,
2013-03-03 22:53:00,23.0,19.0,29.87,East,101,4.0,10.0,85,0.00,,,0.00,,2013-03-04 03:53:00,
2013-03-03 23:01:00,23.0,19.0,29.87,ESE,111,4.0,7.0,85,0.00,,,0.00,,2013-03-04 04:01:00,
2013-03-03 23:11:00,23.0,19.0,29.87,ESE,111,4.0,7.0,85,0.00,,,0.00,,2013-03-04 04:11:00,
2013-03-03 23:22:00,23.0,19.0,29.87,ESE,111,4.0,13.0,84,0.00,,,0.00,,2013-03-04 04:22:00,
2013-03-03 23:32:00,23.0,19.0,29.87,East,101,7.0,13.0,83,0.00,,,0.00,,2013-03-04 04:32:00,
2013-03-03 23:42:00,23.0,19.0,29.87,East,101,7.0,13.0,83,0.00,,,0.00,,2013-03-04 04:42:00,
2013-03-03 23:52:00,23.0,18.0,29.87,ESE,110,5.0,12.0,82,0.00,,,0.00,,2013-03-04 04:52:00,